This demonstration page uses our WeatherBlox Daily Observations layout. Learn more.

Left ArrowRight Arrow

39.12711, -84.51439

Hourly Observations for August 23, 2016

Temp ( °F °C ) Dew Point ( °F °C ) Humidity (%) Winds ( mph kmh ) Pressure ( in mb ) Visibility ( mi km ) Precip ( " mm )
12:53 am 00:53 Clear 62 16.7 62 16.7 100 100 N N/A 30.24 1024 10 16 N/A
1:53 am 01:53 Clear 60 15.6 60 15.6 100 100 N N/A 30.25 1024 8 13 N/A
2:53 am 02:53 Clear 60 15.6 60 15.6 100 100 NE 3 6 30.25 1024 9 14 N/A
3:53 am 03:53 Clear 59 15 59 15 100 100 ENE 3 6 30.25 1024 9 14 N/A
4:19 am 04:19 Mostly Clear 59 15 59 15 100 100 NE 3 6 30.27 1025 8 13 N/A
4:36 am 04:36 Mostly Cloudy 59 15 59 15 100 100 N N/A 30.27 1025 10 16 N/A
4:53 am 04:53 Cloudy 59 15 59 15 100 100 N N/A 30.26 1025 10 16 N/A
5:05 am 05:05 Cloudy with Mist and Fog 59 15 59 15 100 100 N N/A 30.27 1025 1 1 N/A
5:14 am 05:14 Cloudy with Fog 59 15 59 15 100 100 N N/A 30.27 1025 0 0 N/A
5:30 am 05:30 Cloudy with Fog 59 15 59 15 100 100 N N/A 30.27 1025 1 1 N/A
5:53 am 05:53 Cloudy with Fog 59 15 59 15 100 100 N N/A 30.26 1025 0 0 N/A
6:06 am 06:06 Cloudy with Mist and Fog 59 15 59 15 100 100 N N/A 30.27 1025 1 1 N/A
6:11 am 06:11 Cloudy with Mist and Fog 59 15 59 15 100 100 N N/A 30.27 1025 2 3 N/A
6:19 am 06:19 Cloudy with Mist and Fog 59 15 59 15 100 100 N N/A 30.27 1025 5 8 N/A
6:23 am 06:23 Cloudy with Mist and Fog 58 14.4 58 14.4 100 100 N N/A 30.27 1025 2 3 N/A
6:31 am 06:31 Cloudy with Fog 58 14.4 58 14.4 100 100 N N/A 30.27 1025 0 0 N/A
6:41 am 06:41 Mostly Cloudy with Mist and Fog 58 14.4 58 14.4 100 100 N N/A 30.27 1025 1 2 N/A
6:44 am 06:44 Mostly Cloudy with Mist and Fog 57 14 57 14 100 100 N N/A 30.27 1025 3 5 N/A
6:53 am 06:53 Partly Cloudy with Patchy Fog 57 13.9 57 13.9 100 100 N N/A 30.28 1025 10 16 N/A
7:53 am 07:53 Partly Cloudy 59 15 59 15 100 100 N N/A 30.28 1026 10 16 N/A
8:53 am 08:53 Sunny 64 17.8 62 16.7 93 93 N N/A 30.29 1026 10 16 N/A
9:53 am 09:53 Sunny 70 21.1 64 17.8 82 82 WSW 3 6 30.30 1026 10 16 N/A
10:53 am 10:53 Sunny 74 23.3 62 16.7 67 67 N N/A 30.30 1026 10 16 N/A
11:53 am 11:53 Sunny 77 25 61 16.1 58 58 SSE 8 13 30.29 1026 10 16 N/A
12:53 pm 12:53 Partly Cloudy 79 26.1 60 15.6 52 52 VRB 3 6 30.27 1025 10 16 N/A
1:53 pm 13:53 Partly Cloudy 79 26.1 61 16.1 54 54 SSW 6 9 30.26 1025 10 16 N/A
2:53 pm 14:53 Mostly Sunny 80 26.7 60 15.6 51 51 S 5 7 30.24 1024 10 16 N/A
3:53 pm 15:53 Mostly Sunny 81 27.2 61 16.1 51 51 SE 7 11 30.22 1023 10 16 N/A
4:53 pm 16:53 Mostly Sunny 81 27.2 61 16.1 51 51 S 6 9 30.22 1023 10 16 N/A
5:53 pm 17:53 Mostly Sunny 81 27.2 61 16.1 51 51 ESE 8 13 30.20 1023 10 16 N/A
6:53 pm 18:53 Sunny 78 25.6 62 16.7 58 58 SE 3 6 30.21 1023 10 16 N/A
7:53 pm 19:53 Sunny 73 22.8 67 19.4 81 81 SE 3 6 30.21 1023 10 16 N/A
8:53 pm 20:53 Clear 70 21.1 65 18.3 84 84 N N/A 30.21 1023 10 16 N/A
9:53 pm 21:53 Clear 66 18.9 64 17.8 93 93 N N/A 30.22 1023 10 16 N/A
10:53 pm 22:53 Clear 66 18.9 64 17.8 93 93 N N/A 30.20 1023 10 16 N/A
11:53 pm 23:53 Clear 64 17.8 64 17.8 100 100 N N/A 30.20 1023 10 16 N/A

Powered by AerisWeather